Location: Bergnershof
(48.9468°N, 10.9431°E)
Time: 05:13:32
(UTC+00:00)

SeaSat 1 - Pass Details

Date: 03 March 2021
Orbit: 744 x 747 km, 108.0° (Epoch: 11 April)

Event Time Altitude Azimuth Distance (km) Brightness Sun altitude
Rises 19:32:39 0° 24° (NNE) 3,203 5.7 -25.0°
Reaches altitude 10° 19:35:03 10° 17° (NNE) 2,275 5.0 -25.4°
Maximum altitude 19:39:36 38° 310° (NW) 1,126 3.8 -26.1°
Drops below altitude 10° 19:44:08 10° 243° (WSW) 2,264 5.4 -26.8°
Sets 19:46:31 0° 236° (SW) 3,185 6.1 -27.1°
